AAL3210 KJFK-TXKF

Flight info

Callsign AAL3210
Flight time 1h 35m
Altitude 37000
Route SHIPP Y487 KINGG/M077F370 DCT KINER L461 BOVIC MOMOM1
Aircraft B38M/M-SDE1FGHILORVWXY/HB1

Departure

Time 2026-05-08 15:22
Airport John F. Kennedy International Airport (KJFK)

Arrival

Time 2026-05-08 16:57
Airport L.F. Wade International Airport (TXKF)
Time Latitude Longitude Altitude Speed Heading
2026-05-08 14:50 40.64816 -73.79275 21 ft 0 kts 150°
2026-05-08 15:04 40.64836 -73.79288 22 ft 4 kts 160°
2026-05-08 15:05 40.64862 -73.79296 23 ft 4 kts 180°
2026-05-08 15:05 40.64885 -73.79288 21 ft 4 kts 226°
2026-05-08 15:05 40.64890 -73.79280 24 ft 1 kts 240°
2026-05-08 15:07 40.64876 -73.79313 21 ft 9 kts 240°
2026-05-08 15:07 40.64836 -73.79405 20 ft 12 kts 240°
2026-05-08 15:08 40.64807 -73.79476 20 ft 9 kts 242°
2026-05-08 15:08 40.64785 -73.79528 21 ft 10 kts 240°
2026-05-08 15:08 40.64774 -73.79552 22 ft 0 kts 240°
2026-05-08 15:10 40.64771 -73.79558 21 ft 3 kts 239°
2026-05-08 15:10 40.64743 -73.79622 21 ft 12 kts 240°
2026-05-08 15:11 40.64717 -73.79685 22 ft 6 kts 241°
2026-05-08 15:11 40.64712 -73.79739 22 ft 8 kts 299°
2026-05-08 15:11 40.64768 -73.79793 23 ft 11 kts 335°
2026-05-08 15:11 40.64845 -73.79808 22 ft 12 kts
2026-05-08 15:12 40.64932 -73.79806 24 ft 13 kts
2026-05-08 15:12 40.65030 -73.79795 22 ft 15 kts 16°
2026-05-08 15:12 40.65119 -73.79716 23 ft 16 kts 52°
2026-05-08 15:12 40.65181 -73.79581 24 ft 18 kts 60°
2026-05-08 15:13 40.65245 -73.79428 23 ft 20 kts 59°
2026-05-08 15:13 40.65289 -73.79264 22 ft 17 kts 88°
2026-05-08 15:13 40.65268 -73.79122 24 ft 16 kts 107°
2026-05-08 15:13 40.65232 -73.78974 24 ft 18 kts 106°
2026-05-08 15:14 40.65219 -73.78826 22 ft 15 kts 80°
2026-05-08 15:14 40.65256 -73.78717 24 ft 12 kts 57°
2026-05-08 15:14 40.65301 -73.78612 24 ft 14 kts 62°
2026-05-08 15:14 40.65334 -73.78529 24 ft 8 kts 62°
2026-05-08 15:15 40.65361 -73.78453 24 ft 10 kts 76°
2026-05-08 15:15 40.65344 -73.78350 25 ft 14 kts 119°
2026-05-08 15:15 40.65289 -73.78231 25 ft 16 kts 121°
2026-05-08 15:15 40.65229 -73.78098 23 ft 18 kts 120°
2026-05-08 15:16 40.65165 -73.77954 27 ft 17 kts 121°
2026-05-08 15:16 40.65103 -73.77821 22 ft 17 kts 121°
2026-05-08 15:16 40.65049 -73.77701 22 ft 12 kts 121°
2026-05-08 15:16 40.65011 -73.77617 22 ft 10 kts 120°
2026-05-08 15:17 40.64972 -73.77530 24 ft 11 kts 116°
2026-05-08 15:17 40.65002 -73.77445 26 ft 12 kts 25°
2026-05-08 15:17 40.65087 -73.77404 25 ft 15 kts 25°
2026-05-08 15:17 40.65130 -73.77323 23 ft 12 kts 107°
2026-05-08 15:18 40.65087 -73.77219 25 ft 15 kts 121°
2026-05-08 15:18 40.65024 -73.77078 24 ft 20 kts 118°
2026-05-08 15:18 40.64948 -73.76916 24 ft 22 kts 122°
2026-05-08 15:18 40.64883 -73.76768 26 ft 15 kts 121°
2026-05-08 15:19 40.64907 -73.76674 24 ft 13 kts 29°
2026-05-08 15:19 40.64992 -73.76609 24 ft 15 kts 30°
2026-05-08 15:19 40.65086 -73.76536 24 ft 14 kts 38°
2026-05-08 15:19 40.65093 -73.76456 24 ft 4 kts 115°
2026-05-08 15:20 40.65092 -73.76455 28 ft 0 kts 115°
2026-05-08 15:20 40.65091 -73.76453 28 ft 1 kts 116°
2026-05-08 15:20 40.65079 -73.76421 26 ft 9 kts 119°
2026-05-08 15:20 40.65041 -73.76361 25 ft 8 kts 153°
2026-05-08 15:21 40.64985 -73.76385 25 ft 10 kts 211°
2026-05-08 15:21 40.64902 -73.76451 24 ft 28 kts 211°
2026-05-08 15:21 40.64565 -73.76715 22 ft 88 kts 210°
2026-05-08 15:21 40.63857 -73.77268 27 ft 146 kts 210°
2026-05-08 15:22 40.62877 -73.78019 184 ft 176 kts 214°
2026-05-08 15:22 40.61756 -73.78837 797 ft 186 kts 213°
2026-05-08 15:22 40.60646 -73.79676 1591 ft 184 kts 212°
2026-05-08 15:22 40.59457 -73.80496 2141 ft 207 kts 211°
2026-05-08 15:23 40.58107 -73.81426 2650 ft 232 kts 210°
2026-05-08 15:23 40.56481 -73.81832 3411 ft 249 kts 174°
2026-05-08 15:23 40.54860 -73.80869 4083 ft 270 kts 139°
2026-05-08 15:23 40.53821 -73.78755 4727 ft 284 kts 103°
2026-05-08 15:24 40.53774 -73.76211 5673 ft 282 kts 79°
2026-05-08 15:24 40.54109 -73.73625 6410 ft 293 kts 79°
2026-05-08 15:24 40.54038 -73.70945 7252 ft 298 kts 108°
2026-05-08 15:24 40.53054 -73.68548 8007 ft 302 kts 129°
2026-05-08 15:25 40.51868 -73.66231 8833 ft 308 kts 123°
2026-05-08 15:25 40.50749 -73.63799 9656 ft 315 kts 123°
2026-05-08 15:25 40.49613 -73.61306 10326 ft 324 kts 123°
2026-05-08 15:25 40.48423 -73.58681 10713 ft 343 kts 122°
2026-05-08 15:26 40.47181 -73.55933 11167 ft 357 kts 123°
2026-05-08 15:26 40.45900 -73.53105 11874 ft 362 kts 123°
2026-05-08 15:26 40.44599 -73.50243 12607 ft 368 kts 123°
2026-05-08 15:26 40.43278 -73.47340 13346 ft 373 kts 123°
2026-05-08 15:27 40.41938 -73.44398 14030 ft 378 kts 123°
2026-05-08 15:27 40.40578 -73.41417 14681 ft 383 kts 123°
2026-05-08 15:27 40.39199 -73.38396 15330 ft 388 kts 124°
2026-05-08 15:27 40.37801 -73.35337 15981 ft 393 kts 124°
2026-05-08 15:28 40.36384 -73.32240 16631 ft 398 kts 124°
2026-05-08 15:28 40.34946 -73.29100 16954 ft 404 kts 124°
2026-05-08 15:28 40.33500 -73.25944 17293 ft 404 kts 125°
2026-05-08 15:28 40.31978 -73.22844 17946 ft 406 kts 127°
2026-05-08 15:29 40.30423 -73.19720 18492 ft 412 kts 127°
2026-05-08 15:29 40.28857 -73.16557 19029 ft 416 kts 127°
2026-05-08 15:29 40.27278 -73.13367 19550 ft 420 kts 127°
2026-05-08 15:29 40.25682 -73.10144 20068 ft 424 kts 127°
2026-05-08 15:30 40.24061 -73.06897 20570 ft 428 kts 127°
2026-05-08 15:30 40.22425 -73.03625 21066 ft 432 kts 127°
2026-05-08 15:30 40.20774 -73.00324 21561 ft 436 kts 127°
2026-05-08 15:30 40.19106 -72.96996 22048 ft 440 kts 127°
2026-05-08 15:31 40.17421 -72.93635 22515 ft 444 kts 128°
2026-05-08 15:31 40.15717 -72.90242 22959 ft 449 kts 128°
2026-05-08 15:31 40.13997 -72.86818 23445 ft 452 kts 128°
2026-05-08 15:31 40.12265 -72.83375 23843 ft 456 kts 128°
2026-05-08 15:32 40.10556 -72.79931 24233 ft 460 kts 125°
2026-05-08 15:32 40.08935 -72.76309 24632 ft 463 kts 124°
2026-05-08 15:32 40.07297 -72.72675 25012 ft 466 kts 125°
2026-05-08 15:32 40.05639 -72.69024 25390 ft 469 kts 125°
2026-05-08 15:33 40.03942 -72.65303 25774 ft 472 kts 126°
2026-05-08 15:33 40.02281 -72.61665 26108 ft 475 kts 126°
2026-05-08 15:33 40.00584 -72.57956 26477 ft 477 kts 126°
2026-05-08 15:33 39.98883 -72.54236 26877 ft 478 kts 127°
2026-05-08 15:34 39.97182 -72.50497 27234 ft 482 kts 126°
2026-05-08 15:34 39.95518 -72.46690 27596 ft 485 kts 125°
2026-05-08 15:34 39.93845 -72.42872 27953 ft 487 kts 126°
2026-05-08 15:34 39.92156 -72.39035 28303 ft 489 kts 126°
2026-05-08 15:35 39.90458 -72.35183 28646 ft 491 kts 126°
2026-05-08 15:35 39.88750 -72.31315 28985 ft 494 kts 126°
2026-05-08 15:35 39.87032 -72.27428 29317 ft 496 kts 126°
2026-05-08 15:35 39.85308 -72.23532 29628 ft 498 kts 126°
2026-05-08 15:36 39.83574 -72.19620 30006 ft 499 kts 126°
2026-05-08 15:36 39.82426 -72.17031 30192 ft 501 kts 126°
2026-05-08 15:36 39.80087 -72.11765 30534 ft 504 kts 126°
2026-05-08 15:36 39.78333 -72.07822 30802 ft 506 kts 126°
2026-05-08 15:37 39.76565 -72.03853 31046 ft 508 kts 126°
2026-05-08 15:37 39.74785 -71.99886 31301 ft 509 kts 127°
2026-05-08 15:37 39.72949 -71.95943 31553 ft 511 kts 127°
2026-05-08 15:37 39.71107 -71.91982 31787 ft 513 kts 127°
2026-05-08 15:38 39.69260 -71.88007 31977 ft 515 kts 127°
2026-05-08 15:38 39.67408 -71.84024 32256 ft 516 kts 127°
2026-05-08 15:38 39.65550 -71.80033 32462 ft 519 kts 127°
2026-05-08 15:38 39.63679 -71.76020 32688 ft 521 kts 127°
2026-05-08 15:39 39.61800 -71.71995 32908 ft 523 kts 128°
2026-05-08 15:39 39.59910 -71.67952 33117 ft 525 kts 128°
2026-05-08 15:39 39.58011 -71.63894 33334 ft 528 kts 128°
2026-05-08 15:39 39.56101 -71.59818 33541 ft 530 kts 128°
2026-05-08 15:40 39.54183 -71.55730 33755 ft 532 kts 128°
2026-05-08 15:40 39.52260 -71.51638 34010 ft 533 kts 128°
2026-05-08 15:40 39.50331 -71.47536 34226 ft 533 kts 128°
2026-05-08 15:40 39.48424 -71.43488 34473 ft 533 kts 128°
2026-05-08 15:41 39.46471 -71.39344 34742 ft 533 kts 128°
2026-05-08 15:41 39.44513 -71.35276 35000 ft 529 kts 131°
2026-05-08 15:41 39.42226 -71.31740 35252 ft 510 kts 148°
2026-05-08 15:41 39.39418 -71.29114 35519 ft 491 kts 160°
2026-05-08 15:42 39.33552 -71.24507 35744 ft 495 kts 160°
2026-05-08 15:42 39.30589 -71.22237 35946 ft 495 kts 160°
2026-05-08 15:42 39.27624 -71.19992 36187 ft 494 kts 161°
2026-05-08 15:43 39.24659 -71.17760 36413 ft 493 kts 161°
2026-05-08 15:43 39.21695 -71.15533 36649 ft 493 kts 161°
2026-05-08 15:43 39.18732 -71.13308 36863 ft 492 kts 161°
2026-05-08 15:43 39.15775 -71.11091 37022 ft 492 kts 161°
2026-05-08 15:44 39.09857 -71.06661 36985 ft 490 kts 161°
2026-05-08 15:44 39.04915 -71.02969 37010 ft 491 kts 161°
2026-05-08 15:45 38.99007 -70.98560 37008 ft 491 kts 161°
2026-05-08 15:45 38.93139 -70.94192 36996 ft 491 kts 161°
2026-05-08 15:46 38.87231 -70.89808 36962 ft 491 kts 161°
2026-05-08 15:46 38.81315 -70.85419 36998 ft 492 kts 161°
2026-05-08 15:47 38.75397 -70.81035 37002 ft 491 kts 161°
2026-05-08 15:47 38.69479 -70.76663 37005 ft 491 kts 161°
2026-05-08 15:48 38.60600 -70.70121 36956 ft 491 kts 162°
2026-05-08 15:49 38.54663 -70.65757 37014 ft 494 kts 162°
2026-05-08 15:49 38.48705 -70.61385 37004 ft 493 kts 162°
2026-05-08 15:50 38.42750 -70.57024 37006 ft 494 kts 162°
2026-05-08 15:50 38.36793 -70.52669 36950 ft 493 kts 162°
2026-05-08 15:51 38.30827 -70.48318 37021 ft 495 kts 162°
2026-05-08 15:51 38.24855 -70.43969 37010 ft 494 kts 162°
2026-05-08 15:52 38.18927 -70.39656 37011 ft 494 kts 162°
2026-05-08 15:52 38.13132 -70.34821 36982 ft 516 kts 144°
2026-05-08 15:53 38.08168 -70.28150 37027 ft 522 kts 143°
2026-05-08 15:53 38.03191 -70.21399 37009 ft 524 kts 142°
2026-05-08 15:54 37.98226 -70.14643 37013 ft 522 kts 142°
2026-05-08 15:54 37.93288 -70.07936 37015 ft 521 kts 142°
2026-05-08 15:55 37.88334 -70.01223 37013 ft 521 kts 142°
2026-05-08 15:55 37.80901 -69.91181 36977 ft 521 kts 143°
2026-05-08 15:56 37.75948 -69.84501 36983 ft 521 kts 143°
2026-05-08 15:56 37.70993 -69.77834 37010 ft 520 kts 143°
2026-05-08 15:57 37.66039 -69.71183 37011 ft 520 kts 143°
2026-05-08 15:57 37.61082 -69.64544 37012 ft 520 kts 143°
2026-05-08 15:58 37.56121 -69.57911 37012 ft 520 kts 143°
2026-05-08 15:58 37.51158 -69.51294 36960 ft 520 kts 144°
2026-05-08 15:59 37.46182 -69.44669 37012 ft 521 kts 144°
2026-05-08 15:59 37.41204 -69.38053 37002 ft 520 kts 144°
2026-05-08 16:00 37.36226 -69.31454 37006 ft 520 kts 144°
2026-05-08 16:00 37.31244 -69.24863 37005 ft 520 kts 144°
2026-05-08 16:01 37.26261 -69.18283 36975 ft 520 kts 144°
2026-05-08 16:01 37.21273 -69.11711 36965 ft 520 kts 144°
2026-05-08 16:02 37.16268 -69.05130 36997 ft 522 kts 144°
2026-05-08 16:02 37.11266 -68.98565 36990 ft 521 kts 144°
2026-05-08 16:03 37.06258 -68.92007 36990 ft 521 kts 144°
2026-05-08 16:03 37.01247 -68.85459 36943 ft 521 kts 144°
2026-05-08 16:04 36.96237 -68.78925 36987 ft 520 kts 144°
2026-05-08 16:04 36.91265 -68.72452 36933 ft 520 kts 144°
2026-05-08 16:05 36.86233 -68.65916 36987 ft 523 kts 144°
2026-05-08 16:05 36.81198 -68.59389 36978 ft 522 kts 144°
2026-05-08 16:06 36.76156 -68.52869 36960 ft 522 kts 145°
2026-05-08 16:06 36.71123 -68.46366 36987 ft 521 kts 144°
2026-05-08 16:07 36.66090 -68.39878 36964 ft 520 kts 144°
2026-05-08 16:07 36.61053 -68.33398 36929 ft 520 kts 144°
2026-05-08 16:08 36.55856 -68.27227 36967 ft 506 kts 154°
2026-05-08 16:08 36.50310 -68.21789 36969 ft 508 kts 153°
2026-05-08 16:09 36.45696 -68.17282 36940 ft 507 kts 154°
2026-05-08 16:09 36.39223 -68.10973 36965 ft 506 kts 154°
2026-05-08 16:10 36.33685 -68.05587 36969 ft 506 kts 154°
2026-05-08 16:10 36.28145 -68.00209 36967 ft 506 kts 154°
2026-05-08 16:11 36.22603 -67.94839 36970 ft 506 kts 154°
2026-05-08 16:11 36.17059 -67.89477 36963 ft 506 kts 154°
2026-05-08 16:12 36.11554 -67.84163 36965 ft 505 kts 154°
2026-05-08 16:12 36.06008 -67.78818 36902 ft 505 kts 154°
2026-05-08 16:13 36.00456 -67.73478 36965 ft 506 kts 154°
2026-05-08 16:13 35.94905 -67.68150 36955 ft 505 kts 154°
2026-05-08 16:14 35.89350 -67.62826 36955 ft 506 kts 154°
2026-05-08 16:14 35.83793 -67.57510 36955 ft 505 kts 154°
2026-05-08 16:15 35.78237 -67.52204 36941 ft 505 kts 154°
2026-05-08 16:15 35.72670 -67.46899 36961 ft 508 kts 153°
2026-05-08 16:16 35.67083 -67.41583 36946 ft 507 kts 153°
2026-05-08 16:16 35.61498 -67.36280 36951 ft 507 kts 153°
2026-05-08 16:17 35.56857 -67.31880 36946 ft 507 kts 153°
2026-05-08 16:17 35.50325 -67.25699 36938 ft 507 kts 153°
2026-05-08 16:18 35.44730 -67.20414 36909 ft 508 kts 152°
2026-05-08 16:18 35.39130 -67.15135 36937 ft 507 kts 152°
2026-05-08 16:19 35.33542 -67.09876 36936 ft 507 kts 152°
2026-05-08 16:19 35.27984 -67.04654 36937 ft 507 kts 152°
2026-05-08 16:20 35.22393 -66.99411 36934 ft 507 kts 152°
2026-05-08 16:20 35.16813 -66.94187 36931 ft 504 kts 152°
2026-05-08 16:21 35.11244 -66.88983 36878 ft 503 kts 152°
2026-05-08 16:21 35.05715 -66.83825 36933 ft 498 kts 152°
2026-05-08 16:22 35.00224 -66.78711 36925 ft 497 kts 152°
2026-05-08 16:22 34.94727 -66.73600 36926 ft 497 kts 152°
2026-05-08 16:23 34.89224 -66.68491 36896 ft 496 kts 152°
2026-05-08 16:23 34.83575 -66.63856 36935 ft 488 kts 156°
2026-05-08 16:24 34.77916 -66.59275 36922 ft 490 kts 155°
2026-05-08 16:24 34.72266 -66.54652 36913 ft 489 kts 155°
2026-05-08 16:25 34.66598 -66.50109 36919 ft 488 kts 156°
2026-05-08 16:25 34.60932 -66.45574 36894 ft 488 kts 156°
2026-05-08 16:26 34.55274 -66.41053 36915 ft 487 kts 156°
2026-05-08 16:26 34.49650 -66.36573 36914 ft 487 kts 156°
2026-05-08 16:27 34.43985 -66.32062 36912 ft 487 kts 156°
2026-05-08 16:27 34.38317 -66.27557 36915 ft 487 kts 156°
2026-05-08 16:28 34.32650 -66.23060 36882 ft 487 kts 155°
2026-05-08 16:28 34.26989 -66.18578 36917 ft 486 kts 155°
2026-05-08 16:29 34.21329 -66.14102 36916 ft 486 kts 155°
2026-05-08 16:29 34.15689 -66.09650 36812 ft 480 kts 155°
2026-05-08 16:30 34.12875 -66.07433 36355 ft 485 kts 155°
2026-05-08 16:30 34.10053 -66.05210 35752 ft 485 kts 155°
2026-05-08 16:30 34.07227 -66.02986 35203 ft 484 kts 155°
2026-05-08 16:30 34.04415 -66.00773 34634 ft 481 kts 155°
2026-05-08 16:31 34.01600 -65.98564 34125 ft 487 kts 155°
2026-05-08 16:31 33.98749 -65.96325 33524 ft 490 kts 155°
2026-05-08 16:31 33.95889 -65.94081 32905 ft 490 kts 155°
2026-05-08 16:31 33.93037 -65.91844 32346 ft 488 kts 154°
2026-05-08 16:32 33.90233 -65.89648 31838 ft 486 kts 154°
2026-05-08 16:32 33.87375 -65.87412 31304 ft 482 kts 154°
2026-05-08 16:32 33.84611 -65.85250 30772 ft 478 kts 154°
2026-05-08 16:32 33.81829 -65.83077 30240 ft 475 kts 155°
2026-05-08 16:33 33.79071 -65.80924 29672 ft 471 kts 155°
2026-05-08 16:33 33.76332 -65.78786 29079 ft 467 kts 154°
2026-05-08 16:33 33.73629 -65.76678 28616 ft 460 kts 154°
2026-05-08 16:33 33.70951 -65.74594 28147 ft 457 kts 154°
2026-05-08 16:34 33.68300 -65.72531 27659 ft 453 kts 154°
2026-05-08 16:34 33.65666 -65.70482 27184 ft 449 kts 155°
2026-05-08 16:34 33.63900 -65.69110 26869 ft 447 kts 155°
2026-05-08 16:34 33.61294 -65.67085 26401 ft 444 kts 155°
2026-05-08 16:35 33.58745 -65.65106 25948 ft 441 kts 155°
2026-05-08 16:35 33.56178 -65.63116 25494 ft 438 kts 155°
2026-05-08 16:35 33.53628 -65.61139 25034 ft 435 kts 155°
2026-05-08 16:35 33.51091 -65.59173 24594 ft 432 kts 155°
2026-05-08 16:36 33.48573 -65.57225 24167 ft 430 kts 154°
2026-05-08 16:36 33.46068 -65.55286 23726 ft 427 kts 154°
2026-05-08 16:36 33.43579 -65.53360 23249 ft 425 kts 155°
2026-05-08 16:36 33.41105 -65.51452 22774 ft 421 kts 155°
2026-05-08 16:37 33.38649 -65.49557 22341 ft 419 kts 155°
2026-05-08 16:37 33.36196 -65.47667 21917 ft 424 kts 155°
2026-05-08 16:37 33.33698 -65.45742 21458 ft 431 kts 154°
2026-05-08 16:37 33.31169 -65.43793 21045 ft 434 kts 154°
2026-05-08 16:38 33.28630 -65.41837 20606 ft 433 kts 154°
2026-05-08 16:38 33.26105 -65.39895 20168 ft 431 kts 154°
2026-05-08 16:38 33.23595 -65.37966 19732 ft 428 kts 154°
2026-05-08 16:38 33.21096 -65.36046 19298 ft 425 kts 154°
2026-05-08 16:39 33.18620 -65.34146 18856 ft 422 kts 154°
2026-05-08 16:39 33.16156 -65.32255 18441 ft 420 kts 154°
2026-05-08 16:39 33.13706 -65.30377 17979 ft 417 kts 154°
2026-05-08 16:39 33.11276 -65.28513 17515 ft 414 kts 154°
2026-05-08 16:40 33.08861 -65.26663 17102 ft 411 kts 154°
2026-05-08 16:40 33.06462 -65.24790 16609 ft 416 kts 149°
2026-05-08 16:40 33.04382 -65.22348 16193 ft 420 kts 137°
2026-05-08 16:40 33.02401 -65.19806 15801 ft 418 kts 138°
2026-05-08 16:41 33.00419 -65.17286 15390 ft 416 kts 139°
2026-05-08 16:41 32.98447 -65.14778 14969 ft 413 kts 139°
2026-05-08 16:41 32.96488 -65.12283 14541 ft 411 kts 139°
2026-05-08 16:42 32.92598 -65.07336 13685 ft 407 kts 139°
2026-05-08 16:42 32.90688 -65.04908 13197 ft 396 kts 139°
2026-05-08 16:42 32.88828 -65.02546 12627 ft 386 kts 139°
2026-05-08 16:42 32.87017 -65.00248 12067 ft 377 kts 139°
2026-05-08 16:43 32.85241 -64.97997 11524 ft 369 kts 139°
2026-05-08 16:43 32.83534 -64.95831 11131 ft 357 kts 139°
2026-05-08 16:43 32.81843 -64.93690 10823 ft 345 kts 139°
2026-05-08 16:43 32.80217 -64.91632 10511 ft 337 kts 139°
2026-05-08 16:44 32.78658 -64.89660 10206 ft 327 kts 139°
2026-05-08 16:44 32.77148 -64.87749 10071 ft 310 kts 139°
2026-05-08 16:44 32.75682 -64.85897 9945 ft 303 kts 139°
2026-05-08 16:44 32.74252 -64.84091 9620 ft 298 kts 139°
2026-05-08 16:45 32.72835 -64.82303 9276 ft 297 kts 139°
2026-05-08 16:45 32.71420 -64.80519 8959 ft 296 kts 139°
2026-05-08 16:45 32.70008 -64.78739 8639 ft 296 kts 139°
2026-05-08 16:45 32.68598 -64.76961 8326 ft 295 kts 139°
2026-05-08 16:46 32.67191 -64.75187 8009 ft 295 kts 139°
2026-05-08 16:46 32.65786 -64.73418 7706 ft 294 kts 139°
2026-05-08 16:46 32.64382 -64.71652 7402 ft 294 kts 139°
2026-05-08 16:46 32.62979 -64.69887 7098 ft 294 kts 139°
2026-05-08 16:47 32.61579 -64.68126 6803 ft 293 kts 139°
2026-05-08 16:47 32.60176 -64.66362 6463 ft 295 kts 139°
2026-05-08 16:47 32.58764 -64.64587 6105 ft 297 kts 138°
2026-05-08 16:47 32.57348 -64.62808 5780 ft 297 kts 138°
2026-05-08 16:48 32.55930 -64.61029 5453 ft 296 kts 138°
2026-05-08 16:48 32.54537 -64.59280 5128 ft 287 kts 138°
2026-05-08 16:48 32.53198 -64.57602 4871 ft 274 kts 138°
2026-05-08 16:48 32.51904 -64.55980 4548 ft 269 kts 138°
2026-05-08 16:49 32.50641 -64.54397 4254 ft 261 kts 139°
2026-05-08 16:49 32.49414 -64.52859 4029 ft 250 kts 139°
2026-05-08 16:49 32.48262 -64.51355 3937 ft 245 kts 136°
2026-05-08 16:49 32.47133 -64.49842 3786 ft 245 kts 137°
2026-05-08 16:50 32.46007 -64.48338 3551 ft 244 kts 137°
2026-05-08 16:50 32.44884 -64.46841 3370 ft 243 kts 137°
2026-05-08 16:50 32.43763 -64.45350 3240 ft 242 kts 137°
2026-05-08 16:50 32.42641 -64.43864 3055 ft 240 kts 140°
2026-05-08 16:51 32.41446 -64.42527 2956 ft 233 kts 144°
2026-05-08 16:51 32.40174 -64.41445 2931 ft 216 kts 166°
2026-05-08 16:51 32.38801 -64.41194 2801 ft 189 kts 195°
2026-05-08 16:51 32.37624 -64.41669 2668 ft 174 kts 219°
2026-05-08 16:52 32.36741 -64.42591 2552 ft 169 kts 234°
2026-05-08 16:52 32.35968 -64.43651 2432 ft 170 kts 236°
2026-05-08 16:52 32.35241 -64.44712 2323 ft 167 kts 238°
2026-05-08 16:52 32.34537 -64.45797 2208 ft 165 kts 238°
2026-05-08 16:53 32.33462 -64.48144 2028 ft 164 kts 265°
2026-05-08 16:53 32.33435 -64.49488 1962 ft 164 kts 271°
2026-05-08 16:53 32.33539 -64.50839 1955 ft 166 kts 276°
2026-05-08 16:54 32.33721 -64.52180 1964 ft 164 kts 277°
2026-05-08 16:54 32.33933 -64.53500 1973 ft 163 kts 278°
2026-05-08 16:54 32.34170 -64.54821 1910 ft 166 kts 279°
2026-05-08 16:54 32.34454 -64.56153 1775 ft 168 kts 281°
2026-05-08 16:55 32.34737 -64.57502 1533 ft 169 kts 279°
2026-05-08 16:55 32.34952 -64.58866 1253 ft 168 kts 276°
2026-05-08 16:55 32.35114 -64.60211 1039 ft 163 kts 276°
2026-05-08 16:55 32.35315 -64.61505 799 ft 156 kts 277°
2026-05-08 16:56 32.35520 -64.62697 632 ft 139 kts 278°
2026-05-08 16:56 32.35720 -64.63827 459 ft 143 kts 277°
2026-05-08 16:56 32.35910 -64.64998 287 ft 147 kts 278°
2026-05-08 16:56 32.36116 -64.66175 91 ft 145 kts 277°
2026-05-08 16:57 32.36298 -64.67270 28 ft 117 kts 282°
2026-05-08 16:57 32.36412 -64.67933 28 ft 51 kts 281°
2026-05-08 16:57 32.36468 -64.68239 31 ft 35 kts 281°
2026-05-08 16:57 32.36517 -64.68532 31 ft 38 kts 279°
2026-05-08 16:58 32.36571 -64.68853 34 ft 41 kts 279°
2026-05-08 16:58 32.36613 -64.69113 28 ft 15 kts 273°
2026-05-08 16:58 32.36587 -64.69253 29 ft 20 kts 249°
2026-05-08 16:58 32.36541 -64.69382 29 ft 12 kts 248°
2026-05-08 16:59 32.36505 -64.69481 28 ft 14 kts 245°
2026-05-08 16:59 32.36466 -64.69594 27 ft 16 kts 248°
2026-05-08 16:59 32.36422 -64.69719 27 ft 17 kts 247°
2026-05-08 16:59 32.36374 -64.69853 27 ft 18 kts 248°
2026-05-08 17:00 32.36328 -64.69983 27 ft 16 kts 247°
2026-05-08 17:00 32.36293 -64.70083 27 ft 12 kts 247°
2026-05-08 17:00 32.36272 -64.70142 27 ft 2 kts 251°
2026-05-08 17:00 32.36272 -64.70170 27 ft 4 kts 281°
2026-05-08 17:01 32.36303 -64.70211 26 ft 10 kts 326°
2026-05-08 17:01 32.36347 -64.70278 27 ft 10 kts 285°
2026-05-08 17:01 32.36334 -64.70341 27 ft 5 kts 248°
2026-05-08 17:01 32.36329 -64.70355 27 ft 0 kts 247°